This is the latest recevied weather packets stored in our database for station/object LOWELL-WX. If no packets are shown the sender has not sent any weather packets the latest 10 day(s).
| Time | Temp. | Humidity | Pressure | Rain* | Wind** | Luminosity | Snow |
|---|---|---|---|---|---|---|---|
| 1788146162 | 71° F | 81% | 744.1 mmHg | 0 in | - | - | - |
| 1788145262 | 71° F | 81% | 744.1 mmHg | 0 in | - | - | - |
| 1788144360 | 71° F | 78% | 744.4 mmHg | 0 in | - | - | - |
| 1788143462 | 72° F | 81% | 744.6 mmHg | 0 in | - | - | - |
| 1788142560 | 71° F | 81% | 744.5 mmHg | 0 in | - | - | - |
| 1788141970 | 72° F | 81% | 744.5 mmHg | 0 in | - | - | - |
| 1788140761 | 72° F | 82% | 744 mmHg | 0 in | - | - | - |
| 1788139863 | 72° F | 82% | 744 mmHg | 0 in | - | - | - |
| 1788138056 | 73° F | 82% | 744 mmHg | 0 in | - | - | - |
| 1788137160 | 73° F | 75% | 744.1 mmHg | 0 in | - | - | - |
| 1788136260 | 74° F | 75% | 744.2 mmHg | 0 in | - | - | - |
| 1788135358 | 75° F | 75% | 744.2 mmHg | 0 in | - | - | - |
| 1788134467 | 76° F | 75% | 744.2 mmHg | 0 in | - | - | - |
| 1788132663 | 77° F | 65% | 744.3 mmHg | 0 in | - | - | - |
| 1788131759 | 78° F | 65% | 744.3 mmHg | 0 in | - | - | - |
| 1788130862 | 79° F | 65% | 744.3 mmHg | 0 in | - | - | - |
| 1788129962 | 80° F | 60% | 744.7 mmHg | 0 in | - | - | - |
| 1788129063 | 73° F | 61% | 744.8 mmHg | 0 in | - | - | - |
| 1788128162 | 78° F | 61% | 744.8 mmHg | 0 in | - | - | - |
| 1788127267 | 79° F | 61% | 744.8 mmHg | 0 in | - | - | - |
| 1788126362 | 82° F | 64% | 744.7 mmHg | 0 in | - | - | - |
| 1788125463 | 82° F | 71% | 744.9 mmHg | 0 in | - | - | - |
| 1788124561 | 81° F | 71% | 744.9 mmHg | 0.02 in | - | - | - |
| 1788123659 | 79° F | 71% | 744.9 mmHg | 0.02 in | - | - | - |
| 1788122761 | 81° F | 62% | 745 mmHg | 0 in | - | - | - |
* Rain latest hour (hover to see other rain measurements)
** Current wind speed in m/s (hover to see current wind gust speed)